Powrót do katalogu

FENGYUN 1C DEB

AktywnyLEO
NORAD 31286·DEBRIS·🇨🇳 China

Wystrzelony May 10, 1999 z Taiyuan Satellite Launch Center

Loading…

Następne Przeloty (najbliższe 24 godziny)

TLE

ŚwieżeSource: Space-Track

Epoka: Sep 14, 2026, 02:33 UTC

1 31286U 99025BNU 26257.10684305  .00003893  00000-0  16151-2 0  9993
2 31286 100.8576 217.0964 0074769 257.0853 102.1960 14.25810043679404

Śledź FENGYUN 1C DEB w czasie rzeczywistym z AllMySat

Download on the App Store